This is the latest recevied weather packets stored in our database for station/object IA5FYI-13. If no packets are shown the sender has not sent any weather packets the latest 1 day(s).
| Time | Temp. | Humidity | Pressure | Rain* | Wind** | Luminosity | Snow |
|---|---|---|---|---|---|---|---|
| 1778003113 | 17.78° C | 91% | 1010.8 hPa | 0 mm | 1.79 m/s, 185° | - | - |
| 1778002815 | 17.78° C | 91% | 1010.8 hPa | 0 mm | 1.79 m/s, 142° | - | - |
| 1778002510 | 17.78° C | 91% | 1010.8 hPa | 0 mm | 2.68 m/s, 135° | - | - |
| 1778002226 | 17.78° C | 91% | 1010.8 hPa | 0 mm | 3.13 m/s, 146° | - | - |
| 1778001910 | 17.78° C | 91% | 1010.8 hPa | 0 mm | 3.13 m/s, 131° | - | - |
| 1778001314 | 17.78° C | 91% | 1010.8 hPa | 0 mm | 4.02 m/s, 160° | - | - |
| 1778001014 | 17.78° C | 91% | 1010.5 hPa | 0 mm | 6.26 m/s, 183° | - | - |
| 1778000433 | 17.78° C | 91% | 1010.8 hPa | 0 mm | 4.02 m/s, 140° | - | - |
| 1778000110 | 17.78° C | 91% | 1010.8 hPa | 0 mm | 3.58 m/s, 266° | - | - |
| 1777999813 | 17.78° C | 91% | 1010.8 hPa | 0 mm | 4.47 m/s, 142° | - | - |
| 1777999513 | 17.78° C | 91% | 1011.2 hPa | 0 mm | 5.36 m/s, 156° | - | - |
| 1777999213 | 17.78° C | 91% | 1010.8 hPa | 0 mm | 4.02 m/s, 256° | - | - |
| 1777998909 | 17.78° C | 92% | 1010.8 hPa | 0 mm | 1.79 m/s, 51° | - | - |
| 1777998627 | 17.78° C | 91% | 1010.8 hPa | 0 mm | 3.13 m/s, 169° | - | - |
| 1777998309 | 17.78° C | 91% | 1011.2 hPa | 0 mm | 3.13 m/s, 110° | - | - |
| 1777998014 | 17.78° C | 91% | 1011.2 hPa | 0 mm | 3.13 m/s, 167° | - | - |
| 1777997714 | 17.78° C | 91% | 1011.2 hPa | 0 mm | 3.58 m/s, 164° | - | - |
| 1777997413 | 17.78° C | 91% | 1011.2 hPa | 0 mm | 2.24 m/s, 141° | - | - |
| 1777996835 | 17.78° C | 91% | 1011.5 hPa | 0 mm | 4.92 m/s, 138° | - | - |
| 1777996509 | 17.78° C | 91% | 1011.2 hPa | 0 mm | 4.02 m/s, 120° | - | - |
| 1777996214 | 17.78° C | 91% | 1011.2 hPa | 0 mm | 6.26 m/s, 151° | - | - |
| 1777995913 | 18.89° C | 91% | 1011.2 hPa | 0 mm | 7.6 m/s, 162° | - | - |
| 1777995613 | 18.89° C | 90% | 1011.2 hPa | 0 mm | 5.36 m/s, 157° | - | - |
| 1777995024 | 18.89° C | 90% | 1011.2 hPa | 0 mm | 3.13 m/s, 143° | - | - |
| 1777994708 | 18.89° C | 89% | 1011.2 hPa | 0 mm | 5.36 m/s, 139° | - | - |
* Rain latest hour (hover to see other rain measurements)
** Current wind speed in m/s (hover to see current wind gust speed)